Content
SEND FEEDBACK

Daily
Averages
Monthly
Summary
United States of America

WRIGHTSBORO, NORTH CAROLINA


Home > North America > United States > North Carolina
Elevation: 30 feet     Latitude: 34 18N     Longitude: 077 54W

WEATHER
 
SELECT A DAY
Number of Records: 212,513;   Date Range: 1/1/95 - 10/29/14
 
SHARE

PRINT THIS DATA

[ ← Previous Day ]
WEATHER ALMANAC - JANUARY 31, 2013
[ Next Day → ]
[ °C ]   °F
Weather ElementAverageHighLow
Temperature55.3 °F71.6 °F (1:28 am)44.1 °F (10:53 pm)
Dewpoint39.8 °F66.2 °F (1:45 am)24.1 °F (4:53 pm)
Humidity58.8 %88 % (1:45 am)30 % (2:53 pm)
Barometer29.81 in30.09 in (10:53 pm)29.54 in (1:28 am)
Wind Speed19.7 mph39.1 mph (1:45 am)
Wind Gust48.3 mph (1:45 am)
Weather ElementAverage
Visibility9.2 mi
Wind DirectionWSW (247.3 °)

Weather ElementTotal
Precipitation0.22 in
Heating Degree Days7.2 (Base 65)
Growing Degree Days7.8 (Base 50)
Averaged from 30 records on January 31, 2013
WEATHER CONDITIONS BREAKOUT
WIND DIRECTION BREAKOUT
WEATHER BY HOUR - JANUARY 31, 2013
[ °C ]   °F
Local TimeTemperatureDewpointHumidityBarometerVisibilityWind DirectionWind SpeedGust SpeedPrecipitationEventsConditions
12:29 AM69.8 °F62.6 °F78 %29.58 in10.0 miSouth (180°)23.0 mph40.3 mph0.00 inRainLight Rain
12:53 AM70.0 °F64.0 °F81 %29.57 in10.0 miSouth (190°)24.2 mph40.3 mph0.00 inRainLight Rain
1:28 AM71.6 °F64.4 °F78 %29.54 in10.0 miSouth (180°)25.3 mph42.6 mph0.00 inOvercast
1:45 AM69.8 °F66.2 °F88 %29.59 in1.2 miWSW (240°)39.1 mph48.3 mph0.03 inRainHeavy Rain
1:53 AM64.9 °F60.1 °F84 %29.59 in1.5 miWSW (250°)29.9 mph48.3 mph0.15 inRainLight Rain
1:55 AM64.4 °F60.8 °F88 %29.60 in4.0 miWSW (250°)33.4 mph47.2 mph0.00 inRainLight Rain
2:07 AM62.6 °F59.0 °F88 %29.62 in10.0 miWSW (250°)26.5 mph36.8 mph0.00 inRainLight Rain
2:40 AM59.0 °F53.6 °F82 %29.63 in8.0 miWSW (250°)26.5 mph35.7 mph0.01 inRainLight Rain
2:53 AM57.9 °F54.0 °F87 %29.63 in10.0 miWSW (240°)19.6 mph31.1 mph0.02 inRainLight Rain
3:53 AM54.0 °F46.9 °F77 %29.66 in10.0 miSW (230°)23.0 mph27.6 mph0.01 inOvercast
4:53 AM54.0 °F45.0 °F72 %29.69 in10.0 miWSW (240°)21.9 mph29.9 mph0.00 inOvercast
5:53 AM53.1 °F44.1 °F71 %29.72 in10.0 miSW (230°)18.4 mph28.8 mphClear
6:53 AM52.0 °F43.0 °F71 %29.76 in10.0 miWSW (250°)18.4 mph27.6 mphScattered Clouds
7:53 AM50.0 °F35.1 °F57 %29.82 in10.0 miWest (260°)21.9 mph32.2 mphClear
8:53 AM50.0 °F34.0 °F54 %29.86 in10.0 miWest (270°)20.7 mph34.5 mphMostly Cloudy
9:53 AM50.0 °F33.1 °F52 %29.90 in10.0 miWest (280°)20.7 mph32.2 mphClear
10:53 AM52.0 °F28.9 °F41 %29.90 in10.0 miWest (270°)20.7 mph31.1 mphClear
11:53 AM53.1 °F30.0 °F41 %29.90 in10.0 miWest (280°)23.0 mph28.8 mphClear
12:53 PM55.0 °F28.0 °F35 %29.89 in10.0 miWest (280°)15.0 mph24.2 mphClear
1:53 PM55.0 °F28.0 °F35 %29.88 in10.0 miWSW (250°)17.3 mph24.2 mphClear
2:53 PM55.9 °F25.0 °F30 %29.90 in10.0 miWest (270°)18.4 mph25.3 mphClear
3:53 PM55.9 °F26.1 °F32 %29.91 in10.0 miWest (270°)17.3 mph27.6 mphClear
4:53 PM54.0 °F24.1 °F31 %29.94 in10.0 miWest (270°)16.1 mph24.2 mphClear
5:53 PM51.1 °F25.0 °F36 %29.97 in10.0 miWSW (250°)11.5 mphClear
6:53 PM48.0 °F25.0 °F41 %30.02 in10.0 miWest (260°)9.2 mphClear
7:53 PM46.4 °F24.8 °F43 %30.04 in10.0 miWSW (250°)9.2 mphClear
8:53 PM44.6 °F26.6 °F49 %30.06 in10.0 miWSW (240°)8.1 mphClear
9:53 PM45.0 °F26.1 °F48 %30.07 in10.0 miWSW (250°)9.2 mphClear
10:53 PM44.1 °F26.1 °F49 %30.09 in10.0 miWSW (250°)10.4 mphClear
11:53 PM45.0 °F25.0 °F46 %30.09 in10.0 miWSW (240°)12.7 mphClear
Hourly data recorded from KILM, located miles away from Wrightsboro, North Carolina







STORIES FROM OUR PARTNERS